St. Johns, AZ

5:39 AM MST on August 17, 2017 (GMT -0700)
Saint Johns Industrial

Weather History for KSJN - March, 2013

Change the Weather History Date:

Thursday, March 28, 2013

  Actual Average (KLSB) Record (KLSB)
Temperature  
Mean Temperature 49 °F -  
Max Temperature 71 °F 70 °F 84 °F (2015)
Min Temperature 27 °F 34 °F 33 °F (2015)
Degree Days  
Heating Degree Days 16    
Moisture  
Dew Point 14 °F    
Average Humidity 24    
Maximum Humidity 48    
Minimum Humidity 9    
Precipitation  
Precipitation 0.00 in - - ()
Sea Level Pressure  
Sea Level Pressure 29.98 in    
Wind  
Wind Speed 6 mph (SW)    
Max Wind Speed 20 mph    
Max Gust Speed 29 mph    
Visibility 10 miles    
Events      
Averages and records for this station are not official NWS values.
T = Trace of Precipitation, MM = Missing Value Source: NWS Daily Summary

Daily Weather History Graph

Daily Weather History Graph

Search for Another Location

Airport or City:

Trip Planner

Search our weather history database for the weather conditions in past years. The results will help you decide how hot, cold, wet, or windy it might be!

Date:

Astronomy

Mar. 28, 2013 Rise Set
Actual Time 6:09 AM MST 6:35 PM MST
Civil Twilight 5:44 AM MST 7:00 PM MST
Nautical Twilight 5:14 AM MST 7:30 PM MST
Astronomical Twilight 4:44 AM MST 8:00 PM MST
Moon 8:24 PM MST (3/28) 6:44 AM MST (3/28)
Length of Visible Light 13h 16m
Length of Day
12h 26m
Full, 98% of the Moon is Illuminated
Mar 28
Full
Apr 2
Last Quarter
Apr 10
New
Apr 18
First Quarter
Apr 25
Full

Hourly Weather History & Observations

Time (MST) Temp. Windchill Dew Point Humidity Pressure Visibility Wind Dir Wind Speed Gust Speed Precip Events Conditions
12:54 AM 48.9 °F - 18.0 °F 29% 29.93 in 10.0 mi SSE 5.8 mph - N/A   Overcast
1:54 AM 45.0 °F 41.8 °F 16.0 °F 31% 29.94 in 10.0 mi South 5.8 mph - N/A   Clear
2:54 AM 42.1 °F - 16.0 °F 35% 29.95 in 10.0 mi Calm Calm - N/A   Clear
3:54 AM 35.1 °F - 12.9 °F 40% 29.97 in 10.0 mi Calm Calm - N/A   Clear
4:54 AM 35.1 °F - 14.0 °F 42% 29.99 in 10.0 mi Calm Calm - N/A   Clear
5:54 AM 35.1 °F 31.0 °F 15.1 °F 44% 30.01 in 10.0 mi SSE 4.6 mph - N/A   Clear
6:54 AM 36.0 °F - 16.0 °F 44% 30.03 in 10.0 mi Calm Calm - N/A   Clear
7:54 AM 43.0 °F - 16.0 °F 34% 30.04 in 10.0 mi Calm Calm - N/A   Scattered Clouds
8:54 AM 48.9 °F - 16.0 °F 27% 30.02 in 10.0 mi Calm Calm - N/A   Scattered Clouds
9:54 AM 57.9 °F - 14.0 °F 18% 30.00 in 10.0 mi Variable 3.5 mph - N/A   Mostly Cloudy
10:54 AM 62.1 °F - 12.9 °F 15% 29.99 in 10.0 mi WNW 4.6 mph - N/A   Mostly Cloudy
11:54 AM 63.0 °F - 12.9 °F 14% 29.98 in 10.0 mi Variable 3.5 mph - N/A   Partly Cloudy
12:54 PM 69.1 °F - 12.0 °F 11% 29.93 in 10.0 mi West 15.0 mph 20.7 mph N/A   Partly Cloudy
1:54 PM 68.0 °F - 12.0 °F 11% 29.92 in 10.0 mi West 15.0 mph 23.0 mph N/A   Partly Cloudy
2:54 PM 71.1 °F - 12.9 °F 11% 29.89 in 10.0 mi West 13.8 mph 28.8 mph N/A   Clear
3:54 PM 70.0 °F - 12.9 °F 11% 29.91 in 10.0 mi West 19.6 mph 25.3 mph N/A   Clear
4:54 PM 69.1 °F - 6.1 °F 9% 29.93 in 10.0 mi West 15.0 mph 26.5 mph N/A   Clear
5:54 PM 64.0 °F - 8.1 °F 11% 29.96 in 10.0 mi West 15.0 mph - N/A   Clear
6:54 PM 59.0 °F - 8.1 °F 13% 30.00 in 10.0 mi WSW 10.4 mph - N/A   Clear
7:54 PM 55.0 °F - 8.1 °F 15% 30.02 in 10.0 mi SW 10.4 mph - N/A   Clear
8:54 PM 53.1 °F - 12.9 °F 20% 30.03 in 10.0 mi SW 9.2 mph - N/A   Clear
9:54 PM 51.1 °F - 15.1 °F 24% 30.02 in 10.0 mi SSW 9.2 mph - N/A   Clear
10:54 PM 48.9 °F - 15.1 °F 26% 30.02 in 10.0 mi Calm Calm - N/A   Clear
11:54 PM 43.0 °F 39.5 °F 15.1 °F 32% 30.04 in 10.0 mi South 5.8 mph - N/A   Clear